Theta_e
310 311 312 312 313 313 313 313 313 313 314 315 316 315 314 311 305 299 295 294 293 293 293 294 295 295 295 295 295 295 293 293 293 292 292 292 292 291 291 290 289 289
308 309 310 310 310 310 311 312 314 314 314 316 316 315 314 310 305 300 295 293 292 293 292 293 293 293 293 293 293 292 292 292 292 292 291 291 290 290 289 288 288 287
307 308 308 308 309 310 310 312 313 313 313 314 315 316 313 309 305 300 295 292 292 292 292 292 293 293 293 292 292 292 292 292 291 290 290 289 289 288 288 287 287 287
306 306 307 307 308 310 311 311 311 310 310 311 313 315 311 308 305 299 293 291 292 292 292 292 292 292 292 292 292 291 291 290 290 289 289 288 288 287 287 287 286 286
305 306 305 306 307 308 309 308 308 309 309 309 310 311 309 307 304 296 291 291 292 292 292 292 292 292 292 291 291 290 290 289 289 288 288 287 287 287 287 286 286 286
306 305 305 306 307 307 307 306 306 306 307 308 307 307 306 305 301 293 291 291 291 292 292 291 292 291 291 291 290 289 289 289 288 288 287 287 287 287 286 286 286 286
305 305 305 305 305 305 304 303 303 304 306 306 305 304 303 302 297 291 290 291 291 291 291 291 291 291 290 290 289 289 288 288 288 287 287 287 287 286 286 285 285 285
304 305 305 304 303 302 301 300 300 302 304 304 303 303 302 299 294 290 290 291 291 291 291 291 291 290 290 289 289 289 288 288 287 287 287 287 286 286 286 285 285 285
302 302 302 301 300 299 298 298 300 302 302 301 302 302 300 295 291 290 290 290 291 291 291 291 290 290 290 289 289 288 288 287 287 287 287 287 286 286 286 285 285 285
300 299 299 298 298 297 297 298 299 300 300 298 298 300 298 293 290 289 290 290 290 291 290 290 290 290 289 289 288 288 288 287 287 287 287 287 286 286 286 286 285 285
297 297 296 297 297 296 296 299 300 300 298 295 295 296 294 291 289 289 289 290 290 290 290 290 289 289 289 289 288 288 287 287 287 287 287 286 286 286 286 285 285 285
295 295 296 296 296 296 296 297 299 299 297 293 293 293 291 289 289 288 289 289 290 290 290 289 289 289 289 288 288 287 287 286 286 286 286 286 286 285 285 285 285 285
295 295 296 296 297 297 296 295 295 295 295 293 291 290 289 288 288 288 288 288 289 289 289 289 289 289 288 288 288 287 287 286 286 286 286 286 285 285 285 285 285 285
294 295 296 296 296 296 296 295 293 292 291 290 289 288 288 287 287 287 288 288 288 289 289 289 289 288 288 288 287 287 286 286 286 286 286 285 285 285 285 285 285 285
294 294 294 294 294 294 294 293 292 291 289 288 287 287 287 287 287 287 287 287 288 288 288 288 288 288 288 288 287 287 286 286 286 286 286 286 286 285 285 285 285 286
293 293 293 293 293 293 292 291 291 290 289 288 287 287 286 286 286 286 287 287 287 287 287 287 287 288 288 288 287 287 287 287 286 286 286 286 286 285 285 285 286 287
293 293 292 292 292 292 291 290 290 289 288 288 287 286 286 286 286 286 286 287 287 287 287 287 287 288 288 287 287 287 287 286 286 287 288 287 285 285 285 286 288 289
293 293 292 292 292 291 290 290 290 288 288 287 287 286 286 285 286 286 286 286 287 287 287 287 288 288 288 288 287 287 287 286 287 288 288 286 285 285 285 287 289 290
292 292 292 292 292 291 291 290 288 287 286 286 286 285 285 285 285 285 286 286 286 286 286 287 287 288 288 288 287 287 287 287 288 289 287 285 285 285 286 288 290 290
291 291 291 291 291 290 289 288 287 286 286 285 285 284 284 284 284 284 284 285 285 285 286 286 287 287 287 287 287 287 286 287 288 288 286 285 285 285 286 288 289 290
291 290 290 290 289 288 287 286 286 285 285 284 284 284 284 283 283 283 284 284 284 284 285 285 286 286 286 287 287 286 286 287 288 287 286 285 286 285 286 287 289 289
290 290 289 289 288 286 286 285 285 285 284 284 284 284 284 283 283 283 283 283 283 283 283 284 285 285 285 286 286 286 286 288 288 287 286 286 286 286 286 287 288 289
290 290 289 288 288 287 286 286 285 285 284 284 284 284 284 283 283 283 283 283 283 283 283 283 283 284 285 286 286 286 288 289 288 287 286 285 286 286 286 287 287 288
290 290 290 289 288 288 287 286 285 285 285 284 284 284 284 284 284 283 283 283 283 282 283 283 283 284 284 285 286 287 289 288 287 285 285 285 286 287 286 286 287 288
290 290 289 289 288 287 286 286 286 285 285 284 284 284 284 284 284 283 283 283 283 283 283 283 284 285 285 285 286 288 288 287 285 284 284 285 286 287 287 286 286 287
290 289 289 289 288 287 287 287 287 286 285 285 285 285 284 284 284 283 283 283 283 284 284 285 285 285 286 286 287 288 288 287 285 284 284 285 285 285 285 285 285 285
Wind_Speed
33 33 33 33 33 32 32 33 34 34 32 31 32 33 33 33 35 35 35 35 34 34 33 33 33 32 32 32 31 30 29 28 27 26 25 24 23 23 22 21 20 19
33 33 33 33 33 32 32 34 34 34 34 32 33 34 35 35 36 36 36 36 36 35 35 34 33 32 32 32 31 31 30 29 27 26 25 23 23 22 21 20 19 17
33 33 34 34 33 33 34 34 34 34 35 35 35 36 38 38 38 37 37 37 37 36 35 35 34 33 33 32 32 31 30 29 27 26 24 23 22 21 19 19 18 17
33 34 34 34 34 34 34 35 34 35 37 37 37 38 39 39 39 39 39 39 38 37 36 35 34 34 33 32 31 30 29 27 26 25 23 22 20 18 18 18 18 17
33 34 34 34 34 34 34 34 34 36 38 39 38 39 40 40 40 41 41 40 39 37 36 35 35 34 33 32 30 29 28 26 25 23 22 21 19 18 17 17 17 17
34 34 34 34 35 34 34 34 34 36 38 39 38 39 40 40 42 43 42 41 39 38 37 36 35 34 32 31 30 28 27 25 24 23 21 20 19 17 17 17 16 16
35 35 35 35 35 34 33 33 34 36 37 38 37 37 39 41 43 43 42 41 40 38 37 36 35 34 32 31 29 28 26 24 23 22 20 19 18 18 18 17 16 14
34 35 35 35 34 33 33 33 34 35 36 36 35 36 39 42 44 44 42 41 40 39 38 37 35 34 33 31 29 27 26 24 22 21 20 19 18 18 18 18 16 14
34 34 35 35 34 34 34 33 34 36 36 36 35 37 40 43 44 44 43 41 40 39 38 37 36 34 33 31 29 27 25 24 22 21 20 18 18 18 18 17 16 15
34 34 34 34 33 34 34 34 35 36 36 36 36 37 41 44 43 43 43 42 41 40 39 37 36 34 32 30 28 26 24 23 22 21 19 18 17 17 17 16 16 15
34 34 34 34 33 33 34 34 36 36 36 36 37 39 42 44 44 43 43 42 42 40 39 37 35 33 32 30 28 26 24 23 21 20 18 17 17 16 16 15 15 14
33 34 34 34 34 34 33 34 35 36 35 36 37 40 42 44 43 43 42 41 41 39 37 36 35 33 32 30 28 26 24 22 21 19 18 17 17 16 15 15 14 13
34 34 34 34 34 34 34 34 34 35 35 36 37 39 42 43 42 42 41 40 39 38 37 36 35 33 31 30 28 26 24 23 21 19 18 17 16 16 15 15 14 14
34 34 34 33 33 33 33 34 34 34 35 36 37 38 40 41 42 41 40 39 38 37 37 36 34 33 31 30 28 26 24 23 21 19 18 17 17 17 16 16 15 15
32 33 32 32 32 32 33 33 33 33 34 34 35 37 39 40 40 40 40 39 38 37 36 35 34 33 31 30 29 27 25 23 21 19 18 17 18 18 18 17 15 15
31 32 32 32 32 32 32 33 33 33 33 34 35 36 37 38 38 38 39 39 38 37 36 35 33 32 31 30 28 26 24 23 21 19 18 19 20 21 20 17 14 15
31 31 32 32 32 32 32 33 33 33 33 34 35 36 37 37 38 38 39 39 39 38 37 35 34 33 32 30 27 25 24 23 21 19 20 22 24 22 20 16 14 16
32 32 32 32 32 32 32 32 32 33 34 35 36 37 38 38 39 40 40 40 39 39 38 37 36 34 32 30 28 26 25 24 22 21 23 26 25 23 19 16 16 18
32 33 33 32 32 32 32 32 32 33 34 35 36 36 37 37 38 39 39 39 39 38 38 37 36 35 33 30 28 27 26 25 23 24 26 27 25 23 20 18 19 21
32 32 32 32 32 31 31 32 32 32 32 32 32 33 33 34 35 35 36 36 36 36 36 36 35 34 32 30 28 27 27 25 24 25 27 26 25 25 23 22 23 24
30 30 30 30 29 29 29 29 30 30 30 29 29 30 31 31 31 32 32 33 33 33 33 33 32 31 30 29 28 27 26 25 24 26 28 28 28 28 27 26 27 28
29 29 28 28 27 27 27 27 28 28 28 27 27 27 27 27 27 28 29 30 30 30 29 29 29 29 28 27 27 26 25 24 25 28 30 31 32 31 30 30 31 32
29 29 28 27 27 27 28 28 28 27 27 27 26 26 25 25 25 24 25 25 26 26 26 26 26 26 26 26 25 24 24 25 28 30 33 34 34 33 33 35 36 36
28 28 28 28 28 28 28 27 26 25 25 25 25 25 24 24 24 23 23 23 23 23 23 23 23 22 22 23 23 23 24 26 29 31 33 34 35 36 38 39 40 41
26 27 27 27 26 26 25 24 23 23 23 22 22 22 22 22 22 22 22 21 21 20 20 19 19 20 21 22 23 24 25 27 29 30 32 34 37 39 41 43 43 43
25 25 25 25 24 23 23 22 22 21 21 21 20 20 20 20 20 21 21 21 20 20 20 20 20 21 23 25 25 26 27 28 29 31 33 36 38 40 41 42 42 42
Wind_Direction
212 213 214 213 211 211 212 211 207 205 206 205 205 208 210 205 199 197 196 194 193 193 192 190 188 186 185 184 186 187 188 189 190 190 192 193 195 196 195 196 197 196
214 214 213 212 211 214 215 212 210 209 208 205 204 208 209 204 199 198 197 194 193 192 191 189 187 186 185 184 185 187 188 189 189 189 190 192 193 193 191 190 191 191
216 216 215 214 216 217 214 211 211 211 208 205 203 206 207 203 200 199 197 195 193 191 190 188 187 186 186 185 186 188 189 189 188 188 188 189 190 188 187 187 188 187
216 218 217 218 219 217 213 211 212 212 208 204 203 205 205 201 199 198 196 193 193 191 190 188 187 187 186 187 187 188 188 188 188 186 186 187 188 187 187 189 189 187
219 220 220 219 218 215 213 214 215 213 209 205 203 204 203 201 199 197 194 193 192 191 190 189 188 188 187 188 188 188 189 188 188 187 186 186 186 188 191 193 193 191
220 222 221 219 216 214 217 218 217 214 210 207 204 203 202 201 199 197 194 193 192 191 191 190 189 188 188 189 189 190 191 190 189 188 187 188 188 190 194 198 200 198
218 220 219 216 214 216 219 219 218 216 211 208 207 205 202 200 198 196 195 194 192 192 192 191 190 190 190 191 191 192 192 192 191 189 189 191 193 194 196 201 206 205
218 218 217 215 215 216 217 217 216 214 210 209 209 208 204 200 198 197 196 195 194 193 193 193 193 192 192 193 193 194 193 193 194 193 192 194 197 201 201 203 208 211
217 216 214 213 214 214 214 214 214 211 209 209 210 210 206 201 199 198 197 197 196 195 195 195 195 195 195 195 195 196 195 195 197 197 197 199 202 206 207 208 211 215
214 214 213 212 213 214 214 214 212 209 208 209 209 209 206 202 201 200 198 198 197 196 196 196 197 197 197 197 198 199 199 199 200 201 202 204 207 212 215 216 219 222
212 212 213 212 212 213 215 215 213 211 211 210 209 209 206 203 202 200 200 199 198 198 198 198 198 199 199 199 200 201 203 204 205 205 207 209 213 218 222 225 229 233
211 211 213 213 214 214 214 214 213 213 213 213 211 209 206 203 202 201 201 201 200 200 199 200 201 201 202 202 203 203 205 207 209 210 212 214 217 222 227 232 237 242
210 212 213 214 214 215 214 213 213 213 214 214 213 211 207 205 203 202 202 201 201 201 201 202 203 203 204 205 206 207 207 209 212 214 216 219 222 226 230 235 241 246
210 212 214 214 214 215 215 215 214 214 214 213 211 210 209 206 204 203 202 202 202 202 203 205 205 205 206 207 208 209 210 212 214 217 220 222 226 230 232 236 243 251
210 211 212 213 213 213 213 215 215 215 214 213 211 210 209 208 206 204 203 202 203 204 205 206 206 207 208 210 211 211 212 215 217 219 223 227 231 233 233 236 244 256
209 209 209 210 212 212 213 214 214 214 214 214 214 212 210 208 206 205 204 204 204 204 205 206 207 209 212 214 215 214 215 218 220 222 227 233 235 234 234 238 248 261
206 207 208 209 211 212 212 213 213 214 213 214 214 212 210 209 207 206 206 206 206 206 207 208 209 211 213 215 216 217 219 221 222 227 233 236 236 235 234 239 254 264
204 205 207 208 210 211 212 213 213 212 212 213 214 212 211 209 208 208 207 207 208 208 208 209 210 212 214 215 216 218 220 222 224 231 237 238 237 236 236 243 261 267
202 203 205 207 209 210 211 211 210 210 211 212 213 211 210 208 208 208 208 207 208 208 209 210 211 212 214 215 217 219 220 222 227 234 239 241 241 240 239 247 263 268
200 201 203 205 207 208 208 207 207 209 210 210 210 209 207 208 208 208 208 209 209 209 210 211 211 213 214 214 216 219 221 224 231 238 242 244 245 244 242 249 262 269
199 199 200 202 203 203 204 204 205 206 207 208 209 209 208 209 209 209 210 210 211 211 212 212 213 213 214 215 217 219 222 228 235 241 244 246 246 245 244 250 259 267
197 197 198 199 200 200 200 202 203 204 205 207 208 209 210 210 210 211 212 212 213 213 213 213 213 213 213 216 219 219 224 233 240 242 244 245 246 247 247 252 258 266
197 196 196 197 198 199 201 203 203 203 205 207 207 207 209 211 212 215 216 217 216 214 214 214 214 214 215 218 220 221 230 239 242 243 245 247 249 250 250 253 259 265
198 198 198 198 199 201 201 201 201 202 204 206 206 207 209 211 215 217 219 221 221 219 218 217 216 217 219 221 223 229 238 241 241 243 246 249 253 254 254 255 259 263
198 199 199 199 199 199 198 198 199 201 204 205 207 209 211 213 214 215 217 219 222 224 225 226 227 229 228 227 229 235 240 242 242 244 248 251 254 256 256 257 259 262
197 197 198 199 199 197 196 198 200 201 201 203 205 208 210 210 211 214 216 220 224 228 232 235 236 234 231 231 236 242 245 245 244 244 247 251 254 256 257 258 261 264